Weather History for KANJ - April, 2013

Change the Weather History Date:

Friday, April 5, 2013

  Actual Average Record
Temperature  
Mean Temperature 27 °F 35 °F  
Max Temperature 32 °F 44 °F 75 °F (1921)
Min Temperature 21 °F 27 °F -2 °F (1982)
Degree Days  
Heating Degree Days 38 30  
Month to date heating degree days 201 154  
Since 1 July heating degree days 7147 7480  
Cooling Degree Days 0 0  
Month to date cooling degree days 0 0  
Year to date cooling degree days 0 0  
Moisture  
Dew Point 15 °F    
Average Humidity 62    
Maximum Humidity 75    
Minimum Humidity 49    
Precipitation  
Precipitation T in 0.08 in 1.22 in (1947)
Month to date precipitation 0.34 0.41  
Year to date precipitation 9.03 5.89  
Snow  
Snow T in 0.30 in 3.90 in (1979)
Month to date snowfall 3.9 1.7  
Since 1 July snowfall 143.5 115.3  
Snow Depth 19.00 in    
Sea Level Pressure  
Sea Level Pressure 30.16 in    
Wind  
Wind Speed 9 mph (NW)    
Max Wind Speed 21 mph    
Max Gust Speed 27 mph    
Visibility 10 miles    
Events Snow    
T = Trace of Precipitation, MM = Missing Value Source: NWS Daily Summary

Daily Weather History Graph

Daily Weather History Graph

Search for Another Location

Airport or City:

Trip Planner

Search our weather history database for the weather conditions in past years. The results will help you decide how hot, cold, wet, or windy it might be!

Date:

Astronomy

Apr. 05, 2013 Rise Set
Actual Time 7:08 AM EDT 8:12 PM EDT
Civil Twilight 6:38 AM EDT 8:42 PM EDT
Nautical Twilight 6:01 AM EDT 9:19 PM EDT
Astronomical Twilight 5:22 AM EDT 9:59 PM EDT
Moon 4:31 AM EDT (4/5) 3:20 PM EDT (4/5)
Length of Visible Light 14h 04m
Length of Day
13h 03m
Waning Crescent, 24% of the Moon is Illuminated
Apr 5
Waning Crescent
Apr 10
New
Apr 18
First Quarter
Apr 25
Full
May 2
Last Quarter

Hourly Weather History & Observations

Time (EDT) Temp. Windchill Dew Point Humidity Pressure Visibility Wind Dir Wind Speed Gust Speed Precip Events Conditions
12:55 AM 30.9 °F 22.2 °F 21.0 °F 67% 29.97 in 10.0 mi WNW 10.4 mph - N/A   Clear
1:55 AM 30.9 °F 24.3 °F 21.9 °F 69% 29.98 in 10.0 mi NNW 6.9 mph - N/A   Clear
2:55 AM 30.0 °F 23.2 °F 19.9 °F 66% 30.00 in 10.0 mi NW 6.9 mph - N/A   Clear
3:55 AM 28.9 °F 20.4 °F 19.9 °F 69% 30.02 in 10.0 mi North 9.2 mph - N/A   Clear
4:55 AM 27.0 °F 21.6 °F 19.0 °F 72% 30.05 in 10.0 mi North 4.6 mph - N/A   Scattered Clouds
5:55 AM 26.1 °F 17.6 °F 12.9 °F 58% 30.09 in 10.0 mi NNE 8.1 mph - N/A   Clear
6:55 AM 24.1 °F 15.2 °F 10.0 °F 55% 30.14 in 10.0 mi North 8.1 mph - N/A   Clear
7:55 AM 24.1 °F 18.2 °F 10.0 °F 55% 30.17 in 10.0 mi North 4.6 mph - N/A   Clear
8:55 AM 26.1 °F 20.5 °F 10.9 °F 53% 30.18 in 10.0 mi NNE 4.6 mph - N/A   Clear
9:55 AM 27.0 °F 21.6 °F 10.9 °F 51% 30.19 in 10.0 mi NW 4.6 mph - N/A   Clear
10:55 AM 28.9 °F 19.8 °F 12.9 °F 51% 30.20 in 10.0 mi NW 10.4 mph - N/A   Scattered Clouds
11:55 AM 28.9 °F 19.8 °F 16.0 °F 58% 30.22 in 9.0 mi WNW 10.4 mph - 0.00 in Snow Light Snow
12:55 PM 28.9 °F 18.2 °F 12.0 °F 49% 30.22 in 10.0 mi NW 13.8 mph 23.0 mph 0.00 in   Partly Cloudy
1:55 PM 28.9 °F 18.6 °F 12.0 °F 49% 30.21 in 10.0 mi NW 12.7 mph - N/A   Partly Cloudy
2:55 PM 28.9 °F 18.6 °F 12.9 °F 51% 30.21 in 10.0 mi NW 12.7 mph - N/A   Partly Cloudy
3:55 PM 30.0 °F 19.5 °F 14.0 °F 51% 30.20 in 10.0 mi WNW 13.8 mph 23.0 mph N/A   Partly Cloudy
4:55 PM 28.9 °F 17.3 °F 14.0 °F 54% 30.20 in 10.0 mi NW 16.1 mph - N/A   Partly Cloudy
5:55 PM 28.0 °F 16.5 °F 14.0 °F 56% 30.20 in 10.0 mi NW 15.0 mph - N/A   Clear
6:55 PM 28.0 °F 18.1 °F 14.0 °F 56% 30.20 in 10.0 mi NW 11.5 mph 19.6 mph N/A   Clear
7:55 PM 27.0 °F 17.3 °F 14.0 °F 58% 30.21 in 10.0 mi WNW 10.4 mph 17.3 mph N/A   Clear
8:55 PM 26.1 °F 17.6 °F 15.1 °F 63% 30.21 in 10.0 mi NW 8.1 mph - N/A   Clear
9:55 PM 23.0 °F 17.0 °F 14.0 °F 68% 30.24 in 10.0 mi WSW 4.6 mph - N/A   Clear
10:55 PM 24.1 °F 19.7 °F 15.1 °F 69% 30.24 in 10.0 mi WNW 3.5 mph - N/A   Clear
11:55 PM 21.9 °F - 14.0 °F 72% 30.21 in 10.0 mi Calm Calm - N/A   Clear